Location: Baili�vre
(50.0696°N, 4.2409°E)
Time: 15:30:26
(UTC+00:00)

Lacrosse 5 - Pass Details

Date: 08 August 2020
Orbit: 717 x 720 km, 57.0° (Epoch: 18 September)

Event Time Altitude Azimuth Distance (km) Brightness Sun altitude
Rises 19:52:25 0° 292° (WNW) 3,127 7.2 -6.2°
Reaches altitude 10° 19:54:56 10° 300° (WNW) 2,207 6.2 -6.6°
Maximum altitude 19:59:44 40° 10° (N) 1,049 3.0 -7.2°
Drops below altitude 10° 20:04:32 10° 81° (E) 2,205 4.0 -7.8°
Enters shadow 20:06:22 - 87° (E) 2,873 4.5 -8.1°
